Regional Weather Roundup
Issued by NWS

Home | Current Version | Previous Version | Text Only | Print | Product List | Glossary Off
Versions: 1 2 3 4 5 6 7 8 9 10 11 12 13 14 15 16 17 18 19 20 21 22 23 24 25 26 27 28 29 30 31 32 33 34 35 36 37 38 39 40 41 42 43 44 45 46 47 48 49 50

000
ASUS43 KIND 151859
RWRIN

WEATHER ROUNDUP FOR INDIANA
NATIONAL WEATHER SERVICE INDIANAPOLIS IN
200 PM EST SUN JAN 15 2017

NOTE: "FAIR" INDICATES FEW OR NO CLOUDS BELOW 12,000 FEET WITH NO
SIGNIFICANT WEATHER AND/OR OBSTRUCTIONS TO VISIBILITY.

* - STATION DOES NOT REPORT WEATHER SUCH AS PRECIPITATION OR FOG.

+ - STATION NOT QUALITY CONTROLLED BY THE NATIONAL WEATHER SERVICE.
    USE DATA WITH CAUTION...ESPECIALLY DEWPOINT AND RELATIVE
    HUMIDITY OBSERVATIONS.

INZ001>003-010>013-019-020-152000-
NORTHWEST INDIANA

CITY           SKY/WX    TMP DP  RH WIND       PRES   REMARKS
GARY /AIRPORT/ CLOUDY    34  23  64 CALM      30.38F
MONTICELLO +   CLOUDY    33  26  75 E3        30.37F

$$

LMZ046-743>745-152000-
SOUTHERN LAKE MICHIGAN

STATION/POSITION TIME  TEMP    WIND        PRES    WAVE
                       AIR SEA DIR/SP/G            HT
                 (UTC) (F)     (DEG/KT/KT) (MB)    (FT)
BURNS HARBOR     1840   30     350/  2/  4 1029.1F
MICHIGAN CITY    1830   32     230/  2/  2   N/A

$$

INZ004-005-014>016-021>024-152000-
NORTH CENTRAL INDIANA

CITY           SKY/WX    TMP DP  RH WIND       PRES   REMARKS
ELKHART        SUNNY     32  25  74 CALM      30.37F
GOSHEN         CLOUDY    33  24  69 CALM      30.37F
SOUTH BEND     CLOUDY    33  25  72 S3        30.38F

$$

INZ006>009-017-018-025>027-152000-
NORTHEAST INDIANA

CITY           SKY/WX    TMP DP  RH WIND       PRES   REMARKS
ANGOLA *+      SUNNY     30  19  64 CALM      30.36F
FORT WAYNE     CLOUDY    32  21  64 SE3       30.38F
KENDALLVILLE + CLOUDY    32  24  73 CALM      30.36F

$$

INZ028-029-035-036-043>045-051>053-152000-
WEST CENTRAL INDIANA

CITY           SKY/WX    TMP DP  RH WIND       PRES   REMARKS
CRAWFORDSVL +  CLOUDY    32  31  94 E5        30.34F WCI  27
LAFAYETTE      CLOUDY    34  27  75 E5        30.36F WCI  30
TERRE HAUTE    CLOUDY    35  30  82 CALM      30.35F HAZE

$$

INZ030>032-037>040-046>048-054>057-064-065-152000-
CENTRAL INDIANA

CITY           SKY/WX    TMP DP  RH WIND       PRES   REMARKS
COLUMBUS       CLOUDY    36  36 100 NE5       30.35F FOG
INDIANAPOLIS   CLOUDY    34  29  82 SE7       30.34F FOG     WCI  28
-EAGLE CREEK   CLOUDY    34  28  79 E3        30.34F
KOKOMO +       CLOUDY    32  26  78 E5        30.36F WCI  27
MT COMFORT *+  CLOUDY    32  28  86 SE5       30.34F WCI  27
SHELBYVILLE    CLOUDY    36  30  79 E3        30.34F HAZE

$$

INZ033-034-041-042-049-050-058-059-152000-
EAST CENTRAL INDIANA

CITY           SKY/WX    TMP DP  RH WIND       PRES   REMARKS
MUNCIE         CLOUDY    35  28  75 E6        30.36F WCI  30

$$

INZ060-061-067>069-081>083-085>088-152000-
SOUTHWEST INDIANA

CITY           SKY/WX    TMP DP  RH WIND       PRES   REMARKS
EVANSVILLE     LGT RAIN  40  37  89 NE7       30.33F FOG
HUNTINGBURG *+ LGT RAIN  38  37  97 NE5       30.33F FOG

$$

INZ062-063-066-070>080-084-089>092-152000-
SOUTH CENTRAL AND SOUTHEAST INDIANA

CITY           SKY/WX    TMP DP  RH WIND       PRES   REMARKS
BLOOMINGTON    LGT RAIN  36  32  85 E5        30.33F FOG
MADISON *+     CLOUDY    37  36  93 NE3       30.35S
SEYMOUR +      DRIZZLE   37  37 100 N5        30.35F

$$





USA.gov is the U.S. government's official web portal to all federal, state and local government web resources and services.